Regional Weather Roundup
Issued by NWS

Home | Current Version | Previous Version | Graphics & Text | Print | Product List | Glossary On
Versions: 1 2 3 4 5 6 7 8 9 10 11 12 13 14 15 16 17 18 19 20 21 22 23 24 25 26 27 28 29 30 31 32 33 34 35 36 37 38 39 40 41 42 43 44 45 46 47 48 49 50
000
ASUS43 KLOT 302208
RWRIL

ILLINOIS REGIONAL WEATHER ROUNDUP
NATIONAL WEATHER SERVICE CHICAGO/ROMEOVILLE IL
500 PM CDT MON MAR 30 2015

NOTE: "FAIR" INDICATES FEW OR NO CLOUDS BELOW 12,000 FEET WITH NO
SIGNIFICANT WEATHER AND/OR OBSTRUCTIONS TO VISIBILITY.

* THESE STATIONS ARE NOT UNDER NWS QUALITY CONTROL. THEY ALSO MAY NOT
  REPORT WEATHER SUCH AS PRECIPITATION OR FOG.

ILZ001-002-007-009-015-016-024-302300-
NORTHWEST ILLINOIS

CITY           SKY/WX    TMP DP  RH WIND       PRES   REMARKS
MOLINE         PTSUNNY   70  27  20 SW17G29   29.87F
STERLING*      CLOUDY    66  32  28 W8        29.90F
SAVANNA*       CLOUDY    65  29  26 SW6       29.88F
$$

ILZ003-004-008-010-011-017-018-302300-
NORTH CENTRAL ILLINOIS

CITY           SKY/WX    TMP DP  RH WIND       PRES   REMARKS
ROCKFORD       CLOUDY    63  30  28 NE10G17   29.92F
FREEPORT*      CLOUDY    63  31  30 W10       29.91F
ROCHELLE*      CLOUDY    59  38  45 W8        29.92F
DE KALB*       CLOUDY    58  33  38 W5        29.92F
PERU*          CLOUDY    66  29  25 SW14      29.92F
$$

ILZ005-006-012>014-019>023-302300-
NORTHEAST ILLINOIS

CITY           SKY/WX    TMP DP  RH WIND       PRES   REMARKS
CHICAGO-OHARE  CLOUDY    59  30  33 N8        29.92F
CHICAGO-MIDWAY CLOUDY    62  30  29 NW7       29.93F
AURORA         CLOUDY    61  33  35 W8        29.92F
LANSING*       CLOUDY    61  26  26 W7        29.94F
JOLIET*        CLOUDY    64  32  29 W9G16     29.94S
WAUKEGAN       CLOUDY    55  34  45 NW6       29.93F
DUPAGE AIRPORT CLOUDY    61  30  31 W5        29.92F
KANKAKEE*      PTSUNNY   63  35  35 W12       29.95F
WHEELING       CLOUDY    58  30  34 NW7       29.94F
MORRIS*        CLOUDY    63  32  31 W8        29.93S
ROMEOVILLE*    CLOUDY    62  29  28 W9        29.93F
NORTHERLY ISL    N/A     58  29  33 NW5         N/A
$$

LMZ740>746-302300-
SOUTHERN LAKE MICHIGAN

STATION/POSITION SKY/WX   TEMP    WIND        PRES    VSBY  WAVE
                          AIR SEA DIR/SP/G                  HT/PER
                          (F)     (DEG/KT/KT) (MB)    (MI)  (FT/S)
HARRISON CRIB              58     290/ 12/ 18   N/A
BURNHAM HARBOR             56      30/  5/ 19   N/A
CALUMET HARBOR             61     270/  7/ 10 1013.2F
BURNS HARBOR               48     280/  4/  7 1015.2F
MICHIGAN CITY              52     220/  5/  5   N/A
$$

ILZ025>027-034>036-040-047-049-050-058-095>099-302300-
WEST-CENTRAL ILLINOIS

CITY           SKY/WX    TMP DP  RH WIND       PRES   REMARKS
QUINCY         SUNNY     68  30  24 SW17G25   29.98F
GALESBURG*     MOSUNNY   68  32  26 SW15      29.93F
MACOMB*        SUNNY     68  31  24 SW18      29.97F
JACKSONVILLE*  MOSUNNY   70  32  24 SW13G20   30.00F
PITTSFIELD*    SUNNY     68  31  25 W14G20    30.01F
$$

ILZ028>032-037-038-041>044-048-051>054-059>061-302300-
CENTRAL ILLINOIS

CITY           SKY/WX    TMP DP  RH WIND       PRES   REMARKS
PONTIAC        CLOUDY    64  33  30 W9G16     29.96F
BLOOMINGTON    PTSUNNY   64  31  29 W10       29.99F
DECATUR        MOSUNNY   66  30  26 SW13      30.01F
PEORIA         PTSUNNY   70  29  21 W12G24    29.95F
LACON*         CLOUDY    66  27  23 SW10G21   29.93F
LINCOLN*       MOSUNNY   69  30  23 SW7       29.98F
SPRINGFIELD    MOSUNNY   67  31  26 SW9G21    30.00F
TAYLORVILLE    SUNNY     63  36  36 SW10      30.02F
$$

ILZ033-039-045-046-055>057-062-063-302300-
EAST-CENTRAL ILLINOIS

CITY           SKY/WX    TMP DP  RH WIND       PRES   REMARKS
CHAMPAIGN      PTSUNNY   65  30  27 SW15G22   30.00F
DANVILLE*      PTSUNNY   61  33  34 W14       29.97F
RANTOUL*       PTSUNNY   65  32  29 SW16      29.99F
MATTOON        MOSUNNY   62  29  28 SW13      30.03F
PARIS*         PTSUNNY   62  38  40 W14       30.04F
$$

ILZ079-100>102-302300-
SOUTHWEST ILLINOIS

CITY           SKY/WX    TMP DP  RH WIND       PRES   REMARKS
ALTON          SUNNY     66  16  14 SW6       30.05F
BELLEVILLE     SUNNY     69  31  24 VRB5      30.04F
CAHOKIA*       MOSUNNY   70  27  20 VRB6      30.04F
SPARTA*        MOSUNNY   66  32  28 S6        30.08F
$$

ILZ064>066-069>071-074>076-080>082-084>086-088>090-092>094-302300-
SOUTH-CENTRAL ILLINOIS

CITY           SKY/WX    TMP DP  RH WIND       PRES   REMARKS
CARBONDALE     SUNNY     66  30  26 S8        30.09F
CAIRO*         SUNNY     65  38  36 S9        30.13S
EFFINGHAM*     SUNNY     64  27  25 S10G17    30.07F
MARION         MOSUNNY   66  30  26 W8        30.10F
MT. VERNON     SUNNY     66  30  26 SW9G16    30.10S
CENTRALIA*     SUNNY     64  31  28 S8        30.08F
SALEM*         SUNNY     67  27  22 SW6       30.08F
METROPOLIS*    SUNNY     67  33  29 SW10      30.11F
$$

ILZ067-068-072-073-078-083-087-091-302300-
SOUTHEAST ILLINOIS

CITY           SKY/WX    TMP DP  RH WIND       PRES   REMARKS
LAWRENCEVILLE  MOSUNNY   64  29  26 W10       30.08F
FLORA*         MOSUNNY   64  31  28 W7        30.08F
FAIRFIELD*     SUNNY     65  30  27 SW9       30.08S
HARRISBURG*    SUNNY     66  28  23 SW12      30.10F
ROBINSON*      MOSUNNY   64  31  29 SW12G18   30.08F
CARMI*         SUNNY     65  23  20 S5        30.09F
$$

ABBREVIATIONS USED IN REMARKS
   TC - TEMPERATURE IN CELSIUS
  WCI - WIND CHILL INDEX
   HX - HEAT INDEX
  VSB - VISIBILITY
$$



USA.gov is the U.S. government's official web portal to all federal, state and local government web resources and services.